This demonstration page uses our WeatherBlox Daily Observations layout. Learn more.

Left ArrowRight Arrow

36.17497, -115.13722

Hourly Observations for October 11, 2019

Temp ( °F °C ) Dew Point ( °F °C ) Humidity (%) Winds ( mph kmh ) Pressure ( in mb ) Visibility ( mi km ) Precip ( " mm )
12:53 am 00:53 Clear 55 12.8 6 -14.4 14 14 NNW 3 6 30.26 1025 10 16.0934 N/A
1:53 am 01:53 Clear 54 12.2 6 -14.4 14 14 NNE 6 9 30.27 1025 10 16.0934 N/A
2:53 am 02:53 Clear 52 11.1 6 -14.4 15 15 N 7 11 30.27 1025 10 16.0934 N/A
3:53 am 03:53 Clear 51 10.6 6 -14.4 16 16 NNW 8 13 30.25 1025 10 16.0934 N/A
4:53 am 04:53 Clear 51 10.6 6 -14.4 16 16 NNW 13 20 30.26 1025 10 16.0934 N/A
5:53 am 05:53 Clear 50 10 6 -14.4 17 17 NNW 13 20 30.28 1025 10 16.0934 N/A
6:53 am 06:53 Sunny 50 10 5 -15 16 16 NNW 12 19 30.29 1026 10 16.0934 N/A
7:53 am 07:53 Sunny 51 10.6 5 -15 15 15 NNW 13 20 30.31 1026 10 16.0934 N/A
8:53 am 08:53 Sunny 54 12.2 5 -15 14 14 NW 8 13 30.32 1027 10 16.0934 N/A
9:53 am 09:53 Sunny 57 13.9 4 -15.6 11 11 N N/A 30.31 1026 10 16.0934 N/A
10:53 am 10:53 Sunny 60 15.6 2 -16.7 9 9 N N/A 30.28 1025 10 16.0934 N/A
11:53 am 11:53 Sunny 62 16.7 -1 -18.3 8 8 N N/A 30.25 1025 10 16.0934 N/A
12:53 pm 12:53 Sunny 66 18.9 -1 -18.3 7 7 W 6 9 30.21 1023 10 16.0934 N/A
1:53 pm 13:53 Sunny 68 20 -4 -20 5 5 SE 5 7 30.16 1021 10 16.0934 N/A
2:53 pm 14:53 Sunny 70 21.1 -6 -21.1 4 4 N N/A 30.13 1020 10 16.0934 N/A
3:53 pm 15:53 Sunny 71 21.7 -7 -21.7 4 4 VRB 3 6 30.1 1019 10 16.0934 N/A
4:53 pm 16:53 Sunny 71 21.7 -7 -21.7 4 4 E 6 9 30.08 1019 10 16.0934 N/A
5:53 pm 17:53 Sunny 70 21.1 -6 -21.1 4 4 N N/A 30.06 1018 10 16.0934 N/A
6:53 pm 18:53 Clear 67 19.4 -1 -18.3 6 6 W 5 7 30.06 1018 10 16.0934 N/A
7:53 pm 19:53 Clear 63 17.2 6 -14.4 10 10 W 5 7 30.07 1018 10 16.0934 N/A
8:53 pm 20:53 Clear 58 14.4 9 -12.8 14 14 NW 5 7 30.07 1018 10 16.0934 N/A
9:53 pm 21:53 Clear 55 12.8 9 -12.8 16 16 NW 6 9 30.07 1018 10 16.0934 N/A
10:53 pm 22:53 Clear 56 13.3 7 -13.9 14 14 W 6 9 30.06 1018 10 16.0934 N/A
11:53 pm 23:53 Clear 51 10.6 6 -14.4 16 16 N N/A 30.06 1018 10 16.0934 N/A

Powered by AerisWeather